sat.trackr.live / text

‹ back to catalog

KUIPER-00517

NORAD 69600 · 2026-140J

PAYLOAD ACTIVE UNKNOWN

§ Identity

Operator
Country
US
Launch date
2026-06-17
Launch site
FRGUI
Launch vehicle
Mass (kg)
RCS (m²)

External: N2YO · Heavens-Above · Gunter

§ Orbital elements

Epoch: 2026-09-20T04:00:03.000096Z

Period
94.36 min
Inclination
51.8844°
Eccentricity
0.0009831
Mean motion
15.26033256 rev/d
Perigee alt
480.9 km
Apogee alt
494.4 km
Semi-major
6,865.8 km
B*
-6.1457e-2
RAAN
299.5820°
Arg perigee
172.4194°
Mean anomaly
196.6968°
Rev number
571

§ Raw data

KUIPER-005171 69600U 26140J   26263.16670139 -.01453186  00000+0 -61457-1 0  99992 69600  51.8844 299.5820 0009831 172.4194 196.6968 15.26033256  5718

JSON: /api/v1/satellites/69600 · /tle

For live sub-satellite position, see the globe view (requires WebGL).

§ Visibility from observer

Set your observer location to see the next 7 days of passes ≥ 10°. The values pass through the URL so the page stays shareable.

No JS? Fill the form by hand. The geolocation button needs JavaScript.